Wind_Speed
117 119 120 122 123 124 125 125 125 124 123 122 121 120 119 117 115 114 112 110 108 106 105 103 102 100 98 96 93 90 88 85 82 79 76 74 72 72 74 75 73 68
122 123 125 126 127 127 127 126 125 125 123 121 120 118 117 115 113 112 110 107 105 103 102 100 99 98 97 95 92 88 86 83 80 78 75 72 71 71 72 74 71 67
127 128 128 128 129 129 128 127 125 123 121 119 117 116 114 112 111 109 107 105 102 100 99 97 96 95 94 92 89 86 83 81 78 75 73 70 69 69 71 72 70 66
131 131 131 130 129 128 127 126 124 121 118 116 115 113 112 110 108 107 105 102 99 96 95 94 93 92 90 88 86 83 81 79 76 73 70 68 68 68 70 71 69 65
134 134 133 132 130 128 126 124 122 120 118 115 113 111 109 107 106 104 102 99 96 92 90 90 90 88 86 84 83 81 79 77 75 72 69 67 67 68 69 70 68 64
135 135 134 132 130 128 125 123 121 119 117 114 112 109 106 104 101 99 97 94 91 88 86 87 87 85 82 81 80 79 77 75 73 71 68 67 67 67 68 69 67 63
133 132 130 128 126 124 122 120 118 116 114 112 109 106 104 101 98 95 93 90 88 84 83 84 85 83 80 78 77 77 76 75 72 70 68 67 66 66 67 68 65 62
128 125 123 122 121 119 117 115 113 111 109 107 105 103 101 99 97 94 91 89 86 82 80 81 82 81 78 76 75 75 74 74 72 69 68 67 66 65 67 68 64 61
123 121 118 116 115 113 111 109 107 105 103 102 101 100 99 98 96 94 91 88 85 82 80 79 79 77 76 75 74 73 73 72 71 69 67 66 65 65 66 67 64 60
120 117 113 110 107 105 103 102 101 100 100 100 100 100 99 97 95 92 90 87 84 82 80 79 77 74 74 74 73 72 71 71 70 68 66 65 64 64 65 66 63 60
115 112 108 103 99 98 98 97 96 97 98 98 99 100 99 97 94 91 88 85 83 80 79 78 76 72 72 72 72 71 70 69 69 67 65 64 63 63 65 64 62 60
112 109 106 102 99 98 99 98 95 95 96 96 96 97 98 95 92 89 86 83 80 77 76 76 74 71 70 70 70 70 69 69 67 65 64 63 62 63 64 63 60 59
110 107 105 103 101 99 99 98 95 93 93 94 94 94 94 92 89 86 83 81 77 75 73 73 72 70 68 68 68 68 68 67 66 64 63 62 62 62 62 61 59 59
106 104 102 100 98 95 93 93 92 90 90 90 90 90 89 88 85 82 80 78 75 73 71 70 70 68 67 66 67 67 67 66 65 63 62 62 62 62 60 59 59 59
102 100 97 95 93 90 88 86 86 86 85 85 85 85 84 84 81 78 76 75 73 71 69 68 67 66 65 64 64 65 65 65 63 63 63 62 61 61 60 58 58 58
98 96 93 90 88 86 84 82 81 81 80 80 80 79 80 80 78 75 73 72 70 68 67 66 65 64 63 62 63 64 64 63 62 63 63 62 61 60 59 57 57 57
94 92 89 87 84 81 80 79 78 77 76 75 74 74 75 75 75 72 70 68 67 65 64 64 64 62 61 60 61 62 62 61 62 63 62 61 61 60 58 56 56 57
92 89 87 84 81 78 76 75 75 74 73 71 70 70 70 71 71 69 67 65 63 62 61 62 62 60 59 59 60 60 59 59 61 62 61 60 60 60 58 56 55 56
89 87 84 81 78 76 74 72 71 71 70 68 66 66 67 67 66 65 64 62 60 59 59 59 60 59 58 58 59 57 57 59 61 61 60 60 60 59 57 55 55 56
86 83 80 77 75 73 71 70 69 68 67 65 64 64 64 63 63 62 62 60 58 57 56 57 58 58 58 58 57 56 56 58 60 61 60 59 59 58 56 55 55 55
83 79 77 74 72 71 70 68 67 66 65 62 61 62 61 60 60 60 59 58 57 55 54 55 57 58 57 57 55 54 55 56 58 60 60 58 58 57 55 55 55 54
80 76 74 72 70 69 68 67 65 64 63 60 59 59 58 57 57 57 57 56 55 54 53 54 56 56 55 54 54 53 54 55 58 60 59 57 55 55 54 54 54 54
77 73 70 69 68 66 65 65 64 62 61 59 58 57 56 55 54 55 54 54 53 52 52 53 55 54 52 52 52 52 53 55 57 59 58 56 54 53 54 55 55 54
75 72 69 66 65 64 63 62 62 60 58 58 57 55 54 53 52 53 52 52 51 51 50 51 52 51 50 50 50 51 52 54 56 57 57 55 53 52 53 55 55 53
72 69 67 65 63 62 61 60 59 58 57 57 56 54 53 51 51 51 50 50 50 49 49 49 49 48 48 48 49 50 52 54 55 56 55 54 52 51 52 54 54 53
71 68 65 64 62 61 60 58 57 56 56 55 54 53 52 50 49 49 49 49 48 48 47 48 47 47 46 46 48 50 52 53 54 54 54 52 51 51 52 52 52 53
Wind_Direction
303 303 303 303 303 302 302 301 301 300 299 299 298 297 296 296 295 294 294 293 292 292 292 291 290 289 289 288 286 286 285 283 282 279 277 275 272 269 267 266 264 260
303 303 303 303 302 302 301 300 300 299 298 297 297 296 295 294 294 293 292 291 291 290 290 289 289 288 287 286 285 285 283 282 280 278 276 274 271 268 266 265 263 260
303 303 302 302 301 301 300 300 299 298 297 296 295 295 294 293 292 291 291 290 289 289 289 288 287 286 285 285 284 283 282 280 279 277 275 273 270 267 265 264 263 259
302 302 302 301 301 300 300 299 298 297 296 296 295 294 293 292 291 290 289 288 288 287 287 286 285 284 284 283 283 282 280 279 277 276 274 271 268 266 264 263 262 259
302 302 302 302 301 300 300 299 298 297 296 295 294 293 292 291 290 289 288 287 286 286 285 284 283 282 282 282 281 280 279 277 276 274 272 270 267 265 264 263 262 258
302 302 302 301 300 300 299 298 297 297 296 295 294 292 291 290 288 287 286 286 285 284 284 283 282 281 280 280 279 279 278 276 275 273 271 269 266 265 263 263 262 259
301 301 300 300 299 299 299 298 297 296 296 295 294 292 291 290 288 287 286 285 284 283 283 281 281 280 279 279 278 277 276 275 273 272 270 268 266 264 263 262 261 258
301 300 300 300 299 299 298 297 297 296 295 294 293 292 291 290 289 288 287 286 285 284 282 281 279 279 279 278 277 275 274 273 272 270 269 267 265 264 263 262 261 258
301 301 300 299 299 298 297 297 296 295 295 294 293 292 291 290 289 288 287 287 286 284 283 280 279 278 278 277 275 274 273 272 271 269 267 266 264 263 262 261 260 257
301 301 300 299 298 297 297 296 296 296 295 294 293 291 290 289 288 288 287 286 286 284 283 281 279 277 276 275 274 273 271 270 269 268 266 265 263 262 261 260 259 256
302 301 300 300 299 298 298 297 296 295 295 293 292 291 289 288 288 287 287 286 285 284 282 280 279 276 275 273 273 271 270 269 268 266 266 264 262 261 260 259 258 255
303 303 302 301 301 300 299 297 296 295 293 292 290 289 289 288 288 288 287 286 284 282 281 279 277 275 273 272 271 270 269 268 267 266 265 263 262 260 259 258 256 254
303 302 302 301 300 299 298 296 296 294 292 290 289 288 288 288 288 287 287 285 284 282 279 278 276 274 272 270 269 268 267 267 266 265 264 262 261 259 258 257 255 253
302 301 300 299 298 297 296 295 294 293 291 289 288 288 288 288 287 287 286 285 283 281 279 277 275 274 271 269 268 267 266 266 265 265 263 261 260 259 257 256 254 252
301 300 300 299 298 297 296 295 293 292 290 289 289 288 288 287 287 286 285 284 283 281 279 277 275 273 271 269 267 266 265 265 265 264 262 261 259 258 257 255 253 251
302 301 300 299 299 298 297 295 293 292 290 289 289 288 288 287 286 285 284 283 282 281 279 277 274 272 270 268 266 265 264 264 263 262 261 260 259 258 256 254 252 250
303 302 301 301 300 299 298 296 294 292 291 290 289 288 287 286 285 285 284 282 281 279 277 275 273 271 269 266 264 263 262 262 261 261 260 260 258 257 255 253 251 249
304 304 303 302 302 301 299 297 295 293 292 290 289 288 286 285 285 284 283 281 280 278 275 273 272 270 267 264 262 261 261 260 259 259 259 258 257 256 254 252 250 247
305 305 304 303 303 301 299 298 296 294 293 292 290 289 287 286 285 284 283 281 279 276 274 271 270 268 265 262 260 259 258 257 257 257 257 257 256 255 253 251 249 247
305 305 304 304 303 301 300 298 297 295 294 293 292 290 288 287 286 284 282 281 278 275 272 269 267 265 263 261 260 258 256 255 256 256 255 255 255 254 252 250 248 246
306 306 305 304 303 302 300 299 298 296 295 293 291 289 288 287 286 283 282 280 277 274 271 268 265 264 262 261 259 257 255 254 254 254 254 253 253 253 252 250 248 246
307 306 306 305 303 302 300 299 298 297 295 294 292 290 289 288 285 283 281 279 276 273 270 266 264 263 262 261 258 256 253 252 252 253 253 252 252 252 251 249 247 245
307 306 306 305 303 302 300 299 298 297 296 294 293 291 290 288 286 283 280 278 275 272 269 266 264 263 262 260 257 255 252 251 250 252 252 252 251 250 249 248 247 245
307 307 306 305 303 302 300 299 298 297 296 294 293 292 290 289 286 283 280 277 274 271 268 266 264 263 261 258 256 254 251 250 250 251 251 251 250 248 248 247 247 245
307 307 307 305 304 302 301 299 298 297 296 295 294 293 291 289 287 284 280 277 274 271 268 266 264 262 259 257 254 252 250 249 249 250 250 251 250 248 246 246 246 245
308 307 307 306 304 302 301 299 298 297 296 295 294 293 291 290 287 284 281 277 274 271 268 265 263 260 258 255 253 251 250 249 249 249 250 250 249 247 245 245 244 244
Height
10261 10254 10249 10242 10235 10229 10222 10215 10208 10202 10197 10192 10185 10180 10174 10169 10164 10159 10154 10152 10148 10144 10140 10135 10131 10127 10123 10120 10118 10117 10116 10115 10113 10112 10113 10113 10112 10112 10110 10109 10111 10113
10244 10238 10232 10226 10218 10211 10203 10197 10191 10184 10177 10172 10166 10161 10155 10150 10146 10141 10136 10133 10131 10128 10123 10119 10114 10110 10107 10104 10103 10102 10101 10100 10098 10097 10098 10098 10098 10098 10097 10096 10097 10099
10227 10221 10215 10209 10201 10193 10184 10177 10171 10164 10158 10153 10147 10141 10136 10131 10127 10122 10118 10115 10113 10111 10107 10102 10098 10094 10091 10088 10087 10087 10086 10084 10084 10084 10083 10083 10083 10083 10083 10083 10084 10086
10209 10202 10195 10189 10183 10175 10166 10157 10149 10142 10138 10133 10127 10122 10117 10112 10108 10103 10099 10097 10096 10094 10091 10086 10082 10078 10076 10074 10072 10072 10071 10069 10069 10070 10070 10070 10069 10069 10069 10069 10071 10073
10188 10181 10174 10167 10160 10153 10146 10139 10131 10123 10118 10113 10108 10103 10098 10093 10089 10085 10082 10079 10078 10078 10075 10070 10066 10063 10062 10060 10057 10057 10056 10055 10055 10055 10056 10056 10055 10056 10056 10056 10057 10060
10171 10161 10153 10147 10140 10132 10125 10118 10112 10105 10099 10093 10088 10083 10079 10075 10071 10068 10064 10062 10061 10061 10059 10054 10050 10048 10048 10046 10044 10042 10041 10040 10040 10041 10042 10043 10042 10043 10043 10043 10045 10047
10155 10146 10137 10129 10122 10114 10107 10099 10092 10085 10078 10072 10067 10062 10058 10055 10053 10050 10047 10045 10044 10044 10043 10039 10034 10032 10033 10032 10031 10028 10026 10026 10026 10028 10029 10029 10030 10030 10030 10030 10033 10034
10137 10129 10121 10112 10103 10096 10089 10081 10074 10067 10061 10054 10048 10043 10039 10036 10033 10031 10030 10028 10027 10027 10026 10023 10019 10018 10018 10018 10017 10015 10013 10012 10013 10014 10015 10016 10017 10018 10017 10018 10020 10022
10115 10109 10102 10094 10086 10078 10071 10064 10057 10050 10044 10037 10031 10026 10022 10018 10015 10014 10013 10011 10010 10010 10009 10007 10005 10004 10004 10003 10002 10001 10000 9999 9999 10001 10002 10003 10004 10005 10005 10006 10008 10010
10094 10087 10082 10076 10068 10061 10054 10047 10040 10033 10027 10020 10014 10008 10004 10001 9999 9998 9997 9995 9995 9994 9992 9990 9990 9990 9990 9988 9987 9987 9986 9986 9986 9988 9989 9990 9992 9992 9993 9994 9996 9998
10074 10065 10059 10054 10049 10042 10035 10029 10024 10019 10011 10004 9998 9991 9986 9984 9983 9983 9982 9980 9979 9979 9977 9975 9974 9975 9975 9974 9973 9973 9973 9973 9973 9975 9976 9977 9979 9980 9980 9982 9984 9986
10055 10047 10040 10035 10031 10025 10017 10011 10008 10004 9996 9989 9983 9976 9971 9969 9968 9966 9965 9965 9964 9963 9962 9960 9959 9960 9961 9960 9959 9959 9959 9959 9960 9962 9963 9964 9966 9967 9968 9970 9973 9974
10041 10034 10027 10021 10017 10012 10004 9996 9992 9988 9981 9973 9968 9962 9957 9955 9953 9951 9950 9949 9949 9948 9947 9945 9945 9945 9946 9946 9945 9945 9946 9946 9947 9949 9951 9951 9952 9954 9956 9959 9961 9963
10028 10021 10015 10008 10002 9998 9991 9984 9977 9971 9965 9959 9953 9948 9944 9941 9939 9937 9935 9934 9933 9933 9932 9931 9931 9931 9931 9932 9932 9932 9933 9933 9934 9936 9938 9939 9940 9942 9945 9947 9949 9951
10013 10006 10000 9994 9987 9981 9976 9970 9963 9956 9950 9945 9939 9935 9930 9926 9925 9924 9922 9920 9919 9918 9918 9918 9917 9917 9917 9918 9919 9919 9920 9921 9922 9923 9924 9926 9928 9930 9933 9935 9938 9940
9997 9990 9983 9977 9971 9965 9959 9953 9947 9940 9936 9931 9927 9922 9917 9912 9911 9910 9909 9908 9906 9905 9905 9905 9904 9903 9904 9906 9907 9907 9908 9909 9910 9910 9912 9915 9917 9918 9921 9924 9927 9930
9980 9973 9966 9960 9954 9949 9943 9936 9930 9925 9921 9918 9914 9909 9905 9900 9897 9897 9896 9895 9894 9893 9892 9891 9891 9891 9892 9894 9894 9895 9897 9898 9898 9898 9900 9903 9905 9906 9909 9913 9916 9920
9963 9956 9950 9943 9938 9934 9928 9921 9916 9911 9907 9905 9902 9897 9893 9889 9885 9884 9884 9883 9882 9881 9880 9879 9878 9879 9880 9881 9882 9884 9886 9886 9886 9887 9889 9891 9893 9895 9898 9902 9906 9909
9948 9941 9935 9929 9924 9919 9914 9908 9903 9898 9894 9892 9889 9885 9881 9877 9875 9873 9871 9871 9870 9869 9868 9868 9867 9867 9868 9869 9871 9873 9875 9875 9874 9876 9878 9880 9882 9884 9888 9892 9896 9899
9935 9929 9923 9917 9911 9906 9900 9896 9891 9887 9882 9880 9877 9873 9869 9866 9864 9862 9860 9859 9859 9857 9857 9857 9855 9855 9856 9858 9860 9863 9864 9864 9863 9864 9867 9870 9871 9874 9878 9881 9885 9890
9922 9917 9911 9905 9899 9893 9888 9883 9880 9875 9871 9869 9865 9861 9858 9856 9853 9851 9849 9847 9847 9846 9846 9845 9844 9845 9846 9848 9850 9852 9853 9854 9853 9852 9855 9860 9861 9864 9868 9871 9876 9880
9908 9904 9899 9893 9887 9882 9876 9871 9868 9864 9859 9857 9854 9850 9847 9845 9842 9840 9838 9837 9836 9836 9835 9834 9834 9836 9838 9838 9840 9842 9843 9844 9842 9841 9844 9850 9852 9855 9858 9862 9866 9869
9894 9891 9888 9882 9876 9871 9866 9860 9856 9853 9849 9846 9843 9840 9837 9834 9832 9829 9828 9826 9825 9825 9825 9824 9824 9827 9829 9830 9831 9832 9833 9833 9832 9832 9835 9839 9843 9846 9849 9851 9855 9859
9882 9878 9875 9871 9865 9860 9856 9851 9846 9842 9839 9836 9833 9830 9827 9824 9822 9819 9817 9816 9815 9815 9815 9815 9815 9818 9820 9821 9822 9823 9823 9823 9823 9824 9826 9829 9834 9838 9840 9842 9845 9850
9871 9867 9863 9859 9854 9849 9844 9840 9836 9832 9829 9825 9822 9820 9817 9814 9812 9809 9808 9806 9805 9805 9805 9805 9806 9809 9811 9812 9812 9813 9813 9813 9814 9816 9818 9821 9825 9829 9831 9833 9836 9840
9859 9856 9852 9848 9844 9839 9833 9829 9826 9822 9818 9815 9812 9809 9807 9804 9802 9800 9798 9797 9796 9796 9796 9796 9797 9799 9802 9803 9803 9803 9804 9804 9806 9808 9810 9813 9817 9820 9823 9826 9828 9831